GCEND KBMG-KIND

Flight info

Callsign GCEND
Flight time 0h 28m
Altitude 2100
Route KBMG / GOSPORT / KIND
Aircraft C172/L-VGDW/C

Departure

Time 2026-04-24 09:22
Airport Monroe County Airport (KBMG)

Arrival

Time 2026-04-24 09:50
Airport Indianapolis International Airport (KIND)
Time Latitude Longitude Altitude Speed Heading
2026-04-24 09:10 39.14844 -86.61402 844 ft 0 kts 90°
2026-04-24 09:17 39.14861 -86.61383 845 ft 8 kts
2026-04-24 09:17 39.14931 -86.61383 846 ft 12 kts 359°
2026-04-24 09:17 39.14975 -86.61382 847 ft 0 kts 358°
2026-04-24 09:18 39.15042 -86.61425 846 ft 15 kts 285°
2026-04-24 09:18 39.15102 -86.61536 842 ft 19 kts 347°
2026-04-24 09:18 39.15242 -86.61565 839 ft 21 kts 351°
2026-04-24 09:18 39.15373 -86.61588 836 ft 17 kts 350°
2026-04-24 09:19 39.15471 -86.61633 830 ft 13 kts 276°
2026-04-24 09:19 39.15471 -86.61649 829 ft 0 kts 261°
2026-04-24 09:20 39.15469 -86.61661 828 ft 9 kts 258°
2026-04-24 09:20 39.15424 -86.61739 827 ft 2 kts 172°
2026-04-24 09:20 39.15423 -86.61739 827 ft 0 kts 172°
2026-04-24 09:20 39.15335 -86.61724 830 ft 39 kts 171°
2026-04-24 09:21 39.14914 -86.61646 897 ft 70 kts 170°
2026-04-24 09:21 39.14437 -86.61553 1094 ft 72 kts 171°
2026-04-24 09:21 39.13897 -86.61376 1234 ft 83 kts 162°
2026-04-24 09:21 39.13328 -86.61185 1432 ft 86 kts 154°
2026-04-24 09:22 39.12980 -86.60577 1644 ft 90 kts 102°
2026-04-24 09:22 39.12999 -86.59761 1849 ft 92 kts 75°
2026-04-24 09:22 39.13403 -86.59143 2062 ft 93 kts 24°
2026-04-24 09:22 39.14040 -86.58830 2114 ft 109 kts 15°
2026-04-24 09:23 39.14818 -86.58703 2099 ft 116 kts 355°
2026-04-24 09:23 39.15650 -86.58757 2092 ft 120 kts 352°
2026-04-24 09:23 39.16430 -86.59110 2092 ft 120 kts 331°
2026-04-24 09:23 39.17218 -86.59500 2089 ft 122 kts 337°
2026-04-24 09:24 39.18033 -86.59852 2086 ft 122 kts 338°
2026-04-24 09:24 39.18838 -86.60192 2086 ft 122 kts 338°
2026-04-24 09:24 39.19647 -86.60533 2087 ft 122 kts 338°
2026-04-24 09:24 39.20456 -86.60874 2088 ft 122 kts 338°
2026-04-24 09:25 39.21261 -86.61214 2087 ft 122 kts 338°
2026-04-24 09:25 39.22070 -86.61554 2086 ft 122 kts 338°
2026-04-24 09:25 39.22879 -86.61894 2087 ft 122 kts 338°
2026-04-24 09:25 39.23684 -86.62233 2089 ft 122 kts 338°
2026-04-24 09:26 39.24497 -86.62575 2087 ft 122 kts 338°
2026-04-24 09:26 39.25310 -86.62917 2086 ft 122 kts 338°
2026-04-24 09:26 39.26111 -86.63253 2087 ft 122 kts 338°
2026-04-24 09:26 39.26920 -86.63593 2087 ft 122 kts 338°
2026-04-24 09:27 39.27728 -86.63933 2089 ft 122 kts 338°
2026-04-24 09:27 39.28542 -86.64275 2090 ft 122 kts 338°
2026-04-24 09:27 39.29348 -86.64613 2090 ft 122 kts 338°
2026-04-24 09:27 39.30168 -86.64957 2091 ft 122 kts 338°
2026-04-24 09:28 39.30973 -86.65295 2091 ft 122 kts 338°
2026-04-24 09:28 39.31794 -86.65640 2090 ft 122 kts 338°
2026-04-24 09:28 39.32600 -86.65978 2085 ft 122 kts 338°
2026-04-24 09:28 39.33431 -86.66238 2076 ft 124 kts 358°
2026-04-24 09:29 39.34233 -86.65853 2084 ft 124 kts 32°
2026-04-24 09:29 39.34934 -86.65190 2088 ft 125 kts 36°
2026-04-24 09:29 39.35622 -86.64509 2089 ft 125 kts 37°
2026-04-24 09:29 39.36289 -86.63781 2090 ft 125 kts 43°
2026-04-24 09:30 39.36910 -86.63008 2089 ft 125 kts 44°
2026-04-24 09:30 39.37534 -86.62223 2089 ft 125 kts 44°
2026-04-24 09:30 39.38158 -86.61440 2091 ft 125 kts 44°
2026-04-24 09:30 39.38791 -86.60645 2089 ft 125 kts 44°
2026-04-24 09:31 39.39410 -86.59867 2091 ft 125 kts 44°
2026-04-24 09:31 39.40042 -86.59074 2092 ft 125 kts 44°
2026-04-24 09:31 39.40667 -86.58289 2090 ft 125 kts 43°
2026-04-24 09:31 39.41286 -86.57513 2090 ft 125 kts 43°
2026-04-24 09:32 39.41922 -86.56737 2091 ft 125 kts 42°
2026-04-24 09:32 39.42559 -86.55964 2092 ft 125 kts 43°
2026-04-24 09:32 39.43198 -86.55189 2089 ft 125 kts 43°
2026-04-24 09:32 39.43829 -86.54424 2092 ft 125 kts 43°
2026-04-24 09:33 39.44471 -86.53645 2093 ft 125 kts 42°
2026-04-24 09:33 39.45102 -86.52879 2090 ft 125 kts 42°
2026-04-24 09:33 39.45739 -86.52106 2089 ft 125 kts 42°
2026-04-24 09:33 39.46380 -86.51329 2090 ft 125 kts 42°
2026-04-24 09:34 39.47017 -86.50557 2090 ft 125 kts 42°
2026-04-24 09:34 39.47651 -86.49789 2091 ft 125 kts 42°
2026-04-24 09:34 39.48293 -86.49011 2091 ft 125 kts 42°
2026-04-24 09:34 39.48929 -86.48240 2091 ft 125 kts 42°
2026-04-24 09:35 39.49562 -86.47472 2092 ft 125 kts 42°
2026-04-24 09:35 39.50196 -86.46706 2092 ft 125 kts 42°
2026-04-24 09:35 39.50837 -86.45927 2088 ft 125 kts 42°
2026-04-24 09:35 39.51473 -86.45158 2093 ft 125 kts 42°
2026-04-24 09:36 39.52105 -86.44393 2091 ft 125 kts 42°
2026-04-24 09:36 39.52747 -86.43616 2090 ft 125 kts 42°
2026-04-24 09:36 39.53384 -86.42844 2093 ft 125 kts 42°
2026-04-24 09:36 39.54022 -86.42072 2092 ft 125 kts 42°
2026-04-24 09:37 39.54655 -86.41309 2093 ft 125 kts 42°
2026-04-24 09:37 39.55291 -86.40538 2092 ft 125 kts 42°
2026-04-24 09:37 39.55933 -86.39761 2089 ft 125 kts 42°
2026-04-24 09:37 39.56567 -86.38995 2089 ft 125 kts 42°
2026-04-24 09:38 39.57205 -86.38223 2092 ft 125 kts 42°
2026-04-24 09:38 39.57842 -86.37453 2091 ft 125 kts 42°
2026-04-24 09:38 39.58485 -86.36675 2091 ft 125 kts 42°
2026-04-24 09:38 39.59121 -86.35907 2092 ft 125 kts 42°
2026-04-24 09:39 39.59761 -86.35135 2092 ft 125 kts 42°
2026-04-24 09:39 39.60393 -86.34372 2093 ft 125 kts 43°
2026-04-24 09:39 39.61030 -86.33603 2092 ft 125 kts 43°
2026-04-24 09:39 39.61669 -86.32834 2091 ft 125 kts 43°
2026-04-24 09:40 39.62302 -86.32051 2091 ft 125 kts 44°
2026-04-24 09:40 39.62906 -86.31298 2039 ft 118 kts 44°
2026-04-24 09:40 39.63503 -86.30553 1914 ft 117 kts 44°
2026-04-24 09:40 39.64093 -86.29818 1790 ft 117 kts 44°
2026-04-24 09:41 39.64675 -86.29094 1727 ft 111 kts 44°
2026-04-24 09:41 39.65218 -86.28423 1735 ft 105 kts 44°
2026-04-24 09:41 39.65735 -86.27782 1739 ft 102 kts 44°
2026-04-24 09:41 39.66244 -86.27151 1740 ft 101 kts 44°
2026-04-24 09:42 39.66751 -86.26524 1740 ft 100 kts 44°
2026-04-24 09:42 39.67259 -86.25895 1741 ft 100 kts 44°
2026-04-24 09:42 39.67764 -86.25271 1741 ft 100 kts 44°
2026-04-24 09:42 39.68266 -86.24648 1741 ft 99 kts 44°
2026-04-24 09:43 39.68765 -86.24032 1740 ft 99 kts 44°
2026-04-24 09:43 39.69271 -86.23405 1740 ft 99 kts 44°
2026-04-24 09:43 39.69775 -86.22783 1740 ft 99 kts 44°
2026-04-24 09:43 39.70282 -86.22155 1740 ft 99 kts 43°
2026-04-24 09:44 39.70848 -86.21652 1742 ft 98 kts 13°
2026-04-24 09:44 39.71503 -86.21755 1745 ft 95 kts 327°
2026-04-24 09:44 39.72015 -86.22289 1744 ft 94 kts 312°
2026-04-24 09:44 39.72487 -86.22888 1741 ft 94 kts 311°
2026-04-24 09:45 39.72956 -86.23486 1741 ft 95 kts 311°
2026-04-24 09:45 39.73426 -86.24083 1740 ft 95 kts 311°
2026-04-24 09:45 39.73905 -86.24691 1740 ft 94 kts 311°
2026-04-24 09:45 39.74381 -86.25268 1736 ft 89 kts 314°
2026-04-24 09:46 39.74798 -86.25751 1766 ft 74 kts 313°
2026-04-24 09:46 39.75185 -86.26192 1741 ft 72 kts 313°
2026-04-24 09:46 39.75560 -86.26616 1737 ft 69 kts 313°
2026-04-24 09:46 39.75932 -86.27035 1744 ft 73 kts 312°
2026-04-24 09:47 39.76324 -86.27483 1734 ft 77 kts 312°
2026-04-24 09:47 39.76740 -86.27962 1666 ft 81 kts 313°
2026-04-24 09:47 39.77067 -86.28536 1595 ft 78 kts 280°
2026-04-24 09:47 39.76987 -86.29198 1527 ft 75 kts 234°
2026-04-24 09:48 39.76660 -86.29731 1487 ft 76 kts 225°
2026-04-24 09:48 39.76308 -86.30220 1519 ft 71 kts 221°
2026-04-24 09:48 39.75964 -86.30701 1572 ft 71 kts 230°
2026-04-24 09:48 39.75608 -86.31127 1628 ft 72 kts 197°
2026-04-24 09:49 39.75121 -86.30976 1636 ft 75 kts 147°
2026-04-24 09:49 39.74699 -86.30520 1510 ft 80 kts 140°
2026-04-24 09:49 39.74313 -86.29991 1358 ft 79 kts 137°
2026-04-24 09:49 39.73903 -86.29488 1118 ft 84 kts 139°
2026-04-24 09:50 39.73506 -86.28991 885 ft 75 kts 139°
2026-04-24 09:50 39.73199 -86.28584 789 ft 49 kts 139°
2026-04-24 09:50 39.73032 -86.28369 791 ft 24 kts 135°
2026-04-24 09:50 39.73031 -86.28253 790 ft 10 kts 41°
2026-04-24 09:51 39.73068 -86.28211 791 ft 3 kts 43°
2026-04-24 09:51 39.73111 -86.28153 791 ft 13 kts 51°
2026-04-24 09:51 39.73215 -86.28070 791 ft 19 kts 322°
2026-04-24 09:51 39.73316 -86.28081 791 ft 14 kts 345°
2026-04-24 09:52 39.73355 -86.28131 790 ft 0 kts 224°